This is the latest recevied weather packets stored in our database for station/object JH0KSP-13. If no packets are shown the sender has not sent any weather packets the latest 10 day(s).
| Time | Temp. | Humidity | Pressure | Rain* | Wind** | Luminosity | Snow |
|---|---|---|---|---|---|---|---|
| 1778167617 | 17.78° C | 89% | 1011.4 hPa | 0 mm | - | - | - |
| 1778167210 | 17.78° C | 89% | 1011.6 hPa | 0 mm | - | - | - |
| 1778166609 | 17.78° C | 88% | 1011.7 hPa | 0 mm | - | - | - |
| 1778166417 | 17.78° C | 88% | 1011.8 hPa | 0 mm | - | - | - |
| 1778166009 | 17.78° C | 88% | 1011.8 hPa | 0 mm | - | - | - |
| 1778165408 | 17.78° C | 89% | 1011.9 hPa | 0 mm | - | - | - |
| 1778165217 | 17.78° C | 89% | 1011.8 hPa | 0 mm | - | - | - |
| 1778164016 | 17.78° C | 88% | 1011.9 hPa | 0 mm | - | - | - |
| 1778162816 | 17.78° C | 88% | 1011.9 hPa | 0 mm | - | - | - |
| 1778162408 | 17.78° C | 87% | 1012 hPa | 0 mm | - | - | - |
| 1778161617 | 17.78° C | 85% | 1012.1 hPa | 0 mm | - | - | - |
| 1778160417 | 17.78° C | 84% | 1012.3 hPa | 0 mm | - | - | - |
| 1778160008 | 18.89° C | 83% | 1012.3 hPa | 0 mm | - | - | - |
| 1778159409 | 18.89° C | 83% | 1012.3 hPa | 0 mm | - | - | - |
| 1778159216 | 18.89° C | 84% | 1012.4 hPa | 0 mm | - | - | - |
| 1778158208 | 17.78° C | 83% | 1012.4 hPa | 0 mm | - | - | - |
| 1778158016 | 18.89° C | 82% | 1012.4 hPa | 0 mm | - | - | - |
| 1778157608 | 18.89° C | 81% | 1012.4 hPa | 0 mm | - | - | - |
| 1778156815 | 18.89° C | 79% | 1012.6 hPa | 0 mm | - | - | - |
| 1778156408 | 18.89° C | 79% | 1012.6 hPa | 0 mm | - | - | - |
| 1778155617 | 18.89° C | 76% | 1012.4 hPa | 0 mm | - | - | - |
| 1778154608 | 18.89° C | 75% | 1012.4 hPa | 0 mm | - | - | - |
| 1778154417 | 18.89° C | 74% | 1012.4 hPa | 0 mm | - | - | - |
| 1778153410 | 20° C | 70% | 1012.4 hPa | 0 mm | - | - | - |
| 1778153216 | 20° C | 68% | 1012.3 hPa | 0 mm | - | - | - |
* Rain latest hour (hover to see other rain measurements)
** Current wind speed in m/s (hover to see current wind gust speed)